Location: *
(51.5000°N, 0.1100°W)
Time: 20:41:36
(UTC+00:00)

Cosmos 1607 - Pass Details

Date: 25 May 2024
Orbit: 909 x 992 km, 65.0° (Epoch: 24 June)

Event Time Altitude Azimuth Distance (km) Brightness Sun altitude
Exits shadow 00:04:30 21° 216° (SW) 2,061 5.2 -17.5°
Maximum altitude 00:09:03 84° 129° (SE) 1,003 4.0 -17.5°
Drops below altitude 10° 00:15:34 10° 43° (NE) 2,764 7.1 -17.4°
Sets 00:18:09 0° 43° (NE) 3,712 7.9 -17.4°
